Notices

What's New in latest Release from April 7th, 2021:

- Updated Glossary, including Speed of Maximum Gust, and Total Hourly Precipitation

- Updated national and regional climate services offices contacts and prices information

- Addition of station inventory lists for 1981-2010, 1971-2000, and 1961-1990 Normals.

If you haven't already, please take our survey and provide feedback about our website: https://eccc.sondage-survey.ca/f/LanguageSelection.aspx?s=442ca660-fcf1-47c0-95a9-59707d6fd709

Hourly Data Report for November 27, 2019

EUREKA CLIMATE
NUNAVUT
Current Station Operator: ECCC - MSC

79°59'21.000" N
85°56'02.000" W
10.00 m
2401199
71613
NEK

Download Data

Hourly Data (November 2019)
Hourly Data Report for November 27, 2019
TIME
LST
Temp Definition
°C
Dew Point Definition
°C
Rel Hum Definition
%
Precip. Amount Definition
mm

Wind Dir Definition
10's deg

Wind Spd Definition
km/h
Visibility Definition
km
Stn Press Definition
kPa
Hmdx Definition


Wind Chill Definition


Weather Definition


00:00 -33.2 -36.4 73 0.0 10 7   102.25   -41 LegendNANA
01:00 -33.2 -36.3 73 0.0 11 6   102.23   -40 LegendNANA
02:00 -32.6 -35.8 74 0.0 10 6   102.23   -40 LegendNANA
03:00 -33.0 -36.2 73 0.0 11 7   102.22   -41 LegendNANA
04:00 -33.9 -37.2 72 0.0 6 4   102.20   -39 LegendNANA
05:00 -32.7 -35.8 74 0.0   0   102.18     LegendNANA
06:00 -32.9 -36.0 73 0.0 12 2   102.17   -35 LegendNANA
07:00 -33.2 -36.2 74 0.0 7 4   102.17   -38 LegendNANA
08:00 -32.8 -35.9 74 0.0 10 4   102.17   -38 LegendNANA
09:00 -32.8 -35.9 74 0.0 10 6   102.17   -40 LegendNANA
10:00 -32.8 -35.9 74 0.0 10 5   102.18   -39 LegendNANA
11:00 -33.2 -36.3 74 0.0 8 2   102.18   -36 LegendNANA
12:00 -31.8 -34.7 76 0.0 6 4   102.17   -36 LegendNANA
13:00 -32.6 -35.7 74 0.0 12 5   102.17   -39 LegendNANA
14:00 -33.5 -36.7 73 0.0 11 5   102.20   -40 LegendNANA
15:00 -33.9 -37.2 73 0.0 7 2   102.21   -36 LegendNANA
16:00 -33.4 -36.5 74 0.0 4 8   102.20   -42 LegendNANA
17:00 -33.5 -36.7 73 0.0 13 5   102.20   -40 LegendNANA
18:00 -34.1 -37.5 72 0.0 10 8   102.18   -43 LegendNANA
19:00 -33.6 -36.8 73 0.0 12 6   102.20   -41 LegendNANA
20:00 -34.5 -37.6 73 0.0 4 6   102.18   -42 LegendNANA
21:00 -33.7 -36.8 73 0.0 10 9   102.14   -43 LegendNANA
22:00 -34.0 -37.3 72 0.0 11 4   102.13   -39 LegendNANA
23:00 -34.1 -37.1 74 0.0 4 9   102.11   -43 LegendNANA

Notes on Data Quality.

Legend

  • E = Estimated
  • M = Missing
  • NA = Not Available*
  • [empty] = Indicates an unobserved value
Date modified: